Flag for Sweden

Past Weather in Lund, Sweden — Yesterday and Last 2 Weeks

Now
55 °F

Sunny.


Feels Like: 55 °F
Forecast: 64 / 47 °F
Wind: 5 mph from South

Location: Malmo / Sturup

Current Time: Jul 9, 2020 at 9:14:30 pm

Latest Report: Jul 9, 2020 at 8:20 pm


Visibility: 10 mi

Pressure: 29.86 "Hg

Humidity: 77%

Dew Point: 48 °F

Location of LundLocation

Past Weather in Lund — Graph

°F

Lund Temperature Yesterday

Maximum temperature yesterday: 61 °F (at 5:20 pm)
Minimum temperature yesterday: 50 °F (at 2:50 am)
Average temperature yesterday: 55 °F

High & Low Weather Summary for the Past Weeks

 TemperatureHumidityPressure
High81 °F (Jun 25, 12:50 pm)100% (Jun 25, 3:50 am)30.33 "Hg (Jun 25, 3:50 am)
Low45 °F (Jul 9, 5:20 am)28% (Jun 25, 12:50 pm)29.53 "Hg (Jun 30, 9:20 pm)
Average62 °F75%29.82 "Hg
* Reported Jun 24 7:20 pm — Jul 9 7:50 pm, Lund. Weather by CustomWeather, © 2020

Note: Actual official high and low records may vary slightly from our data, if they occured in-between our weather recording intervals... More about our weather records

Lund Weather History for the Previous 24 Hours

Scroll right to see more
 ConditionsComfort  
Time TempWeatherWind HumidityBarometerVisibility
7:50 pm
Thu, Jul 9
55 °FPartly sunny.6 mph77%29.86 "HgN/A
7:20 pm57 °FPassing clouds.7 mph72%29.86 "HgN/A
6:50 pm59 °FSunny.6 mph63%29.86 "Hg10 mi
6:20 pm59 °FSunny.6 mph63%29.86 "Hg10 mi
5:50 pm59 °FSunny.5 mph63%29.89 "Hg10 mi
5:20 pm59 °FPassing clouds.6 mph63%29.89 "HgN/A
4:50 pm59 °FPassing clouds.8 mph59%29.89 "HgN/A
4:20 pm59 °FScattered clouds.9 mph63%29.89 "HgN/A
3:50 pm61 °FPassing clouds.7 mph59%29.89 "HgN/A
3:20 pm61 °FPassing clouds.8 mph55%29.89 "HgN/A
2:20 pm61 °FPartly sunny.10 mph59%29.92 "HgN/A
1:50 pm61 °FScattered clouds.9 mph59%29.92 "HgN/A
1:20 pm61 °FPartly sunny.9 mph59%29.92 "HgN/A
12:50 pm61 °FScattered clouds.9 mph52%29.92 "HgN/A
12:20 pm61 °FScattered clouds.8 mph52%29.92 "HgN/A
11:50 am59 °FScattered clouds.9 mph55%29.92 "HgN/A
11:20 am59 °FPartly sunny.10 mph55%29.92 "HgN/A
10:50 am59 °FScattered clouds.8 mph55%29.95 "HgN/A
10:20 am59 °FPassing clouds.9 mph59%29.95 "HgN/A
9:50 am59 °FScattered clouds.8 mph63%29.95 "HgN/A
9:20 am57 °FPassing clouds.8 mph63%29.95 "HgN/A
8:50 am57 °FScattered clouds.9 mph72%29.95 "HgN/A
8:20 am55 °FSunny.10 mph72%29.95 "Hg10 mi
7:50 am55 °FSunny.9 mph77%29.95 "Hg10 mi
7:20 am54 °FSunny.6 mph82%29.95 "Hg10 mi
6:50 am52 °FSunny.5 mph88%29.95 "Hg10 mi
6:20 am52 °FSunny.6 mph88%29.95 "Hg10 mi
5:50 am52 °FSunny.6 mph88%29.95 "Hg10 mi
5:20 am45 °FPassing clouds.5 mph100%29.92 "HgN/A
4:50 am46 °FSunny.5 mph87%29.92 "Hg10 mi
4:20 am50 °FClear.5 mph88%29.92 "Hg10 mi
3:50 am50 °FClear.5 mph88%29.92 "Hg10 mi
3:20 am50 °FClear.6 mph88%29.92 "Hg10 mi
2:50 am50 °FClear.3 mph88%29.92 "Hg10 mi
2:20 am50 °FClear.5 mph88%29.92 "Hg10 mi
1:50 am52 °FClear.7 mph82%29.92 "Hg10 mi
1:20 am52 °FClear.6 mph82%29.92 "Hg10 mi
12:50 am52 °FClear.7 mph82%29.92 "Hg10 mi
12:20 am52 °FClear.7 mph82%29.92 "Hg10 mi
11:50 pm
Wed, Jul 8
52 °FClear.7 mph82%29.92 "Hg10 mi
11:20 pm54 °FClear.8 mph72%29.92 "Hg10 mi
10:50 pm54 °FClear.7 mph72%29.92 "Hg10 mi
10:20 pm55 °FPassing clouds.6 mph67%29.92 "HgN/A
9:50 pm55 °FPassing clouds.7 mph67%29.92 "HgN/A
Weather by CustomWeather, © 2020

See weather overview